Miscellaneous Local Product
Issued by NWS Hastings, NE

Home | Current Version | Previous Version | Text Only | Print | Product List | Glossary Off
Versions: 1 2 3 4 5 6 7 8 9 10 11 12 13 14 15 16 17 18 19 20 21 22 23 24 25 26 27 28 29 30 31 32 33 34 35 36 37 38 39 40 41 42 43 44 45 46 47 48 49 50

000
AXUS43 KGID 032002
MISGRI

GID CWA HOURLY WEATHER ROUNDUP
NATIONAL WEATHER SERVICE HASTINGS NE
300 PM CDT SUN MAY 03 2015

NOTE: "FAIR" INDICATES FEW OR NO CLOUDS BELOW 12,000 FEET WITH NO
SIGNIFICANT WEATHER AND/OR OBSTRUCTIONS TO VISIBILITY.

...SOUTH CENTRAL NEBRASKA...

CITY           SKY/WX    TMP DP  RH WIND       PRES   REMARKS
GRAND ISLAND   SUNNY     90  45  21 W8G23     29.73F
HASTINGS       SUNNY     89  42  19 W9G24     29.74S
KEARNEY        SUNNY     88  43  20 W12G21    29.76S
ORD            SUNNY     83  53  35 N17G25    29.76R
YORK           SUNNY     90  45  20 SW10G17   29.73S
AURORA         SUNNY     90  41  18 SW6G21    29.72F
LEXINGTON      SUNNY     85  45  24 NW10G18   29.77S
HOLDREGE       SUNNY     86  37  17 W17       29.77F
HEBRON         SUNNY     90  40  17 SW10      29.74S

...NEBRASKA PANHANDLE...

CITY           SKY/WX    TMP DP  RH WIND       PRES   REMARKS
CHADRON        SUNNY     70  40  33 NE18      29.97F
ALLIANCE       SUNNY     69  40  34 NE22      29.96R
SCOTTSBLUFF    MOSUNNY   72  39  30 NE14G23   29.96S
SIDNEY         MOSUNNY   72  43  35 NE14G21   29.95F

...WESTERN AND NORTH CENTRAL NEBRASKA...

CITY           SKY/WX    TMP DP  RH WIND       PRES   REMARKS
VALENTINE      LGT RAIN  73  37  27 NE21G35   29.91R
AINSWORTH      SUNNY     73  41  31 NE17G31   29.89R
ONEILL         MOSUNNY   77  52  41 N17G24    29.81S
BROKEN BOW     SUNNY     82  50  32 N22G28    29.80R
IMPERIAL       SUNNY     82  41  23 N16G25    29.86R
NORTH PLATTE   SUNNY     78  46  32 N12G23    29.85R
MCCOOK         SUNNY     90  37  15 NW13G20   29.79F

...EASTERN NEBRASKA...

CITY           SKY/WX    TMP DP  RH WIND       PRES   REMARKS
NORFOLK        MOSUNNY   85  54  34 CALM      29.72F
SO SIOUX CITY  SUNNY     84  56  38 CALM      29.73S
TEKAMAH        SUNNY     87  59  38 SW10G24   29.72S
COLUMBUS       MOSUNNY   82  55  39 SE6       29.75S
ALBION         MOSUNNY   83  51  32 CALM      29.74S
OMAHA EPPLEY   PTSUNNY   80  59  48 S9        29.73F
OFFUTT AFB     PTSUNNY   77  60  54 S14       29.72F
MILLARD        CLOUDY    77  62  59 SE6       29.73F
LINCOLN        TSTM      73  66  78 E6        29.75S
NEBRASKA CITY  PTSUNNY   82  51  34 SW10G17   29.77S
BEATRICE       MOSUNNY   85  59  40 S14       29.74F
FALLS CITY     PTSUNNY   82  59  45 SW20      29.77S

...NORTHERN KANSAS...

CITY           SKY/WX    TMP DP  RH WIND       PRES   REMARKS
GOODLAND       MOSUNNY   84  37  18 NW8       29.87S
HILL CITY      PTSUNNY   86  47  25 S8        29.79F
NORTON         CLEAR     90  27  10 W12G18    29.78S
PHILLIPSBURG   SUNNY     91  43  18 SW8       29.77S
SMITH CENTER   SUNNY     90  39  17 SW13G18   29.77S
BELOIT         SUNNY     91  45  19 S10       29.74F
HAYS           MOSUNNY   88  45  22 SE6       29.79F
RUSSELL        MOSUNNY   89  50  26 S14       29.77S
CONCORDIA      SUNNY     88  51  28 S10       29.76F
SALINA         SUNNY     86  57  37 S21       29.78F
TOPEKA         PTSUNNY   82  58  43 S14G23    29.81S



USA.gov is the U.S. government's official web portal to all federal, state and local government web resources and services.